Мао

Чад     14°07′04″N   15°18′38″E
темп.,
°C
ветер,
м/с
пор.,
м/с
влажн.,
%
обл.,
%
осадки,
мм/ч
давл.,
гПа
погр.,
м
22 апреля, чт
чт2201:00+27св331183 0.0 100615
04:00+27св57140 0.0 100684
07:00+28св4111656 0.0 1008259
10:00+38всв68105 0.0 10081052
13:00+41в436100 0.0 10053300
16:00+41всв23696 0.0 10033766
19:00+34сз2295 0.0 100411
22:00+31сз5612100 0.0 100668
23 апреля, пт
пт2301:00+29ссз4414100 0.0 100535
04:00+29с4514100 0.0 100552
07:00+30ссв48115 0.0 1007167
10:00+39всв811819 0.0 10071257
13:00+43в6575 0.0 10034349
16:00+43вюв34792 0.0 10015097
19:00+34з4713100 0.0 100378
22:00+32зсз4414100 0.0 100434
24 апреля, сб
сб2401:00+31св331494 0.0 100319
04:00+31всв44145 0.0 100441
07:00+31всв410133 0.0 1006254
10:00+39вюв67124 0.0 1006936
13:00+42ю66105 0.0 10033469
16:00+42ю561042 0.0 10013822
19:00+34юз45133 0.0 100361
22:00+30ююз22174 0.0 100611
25 апреля, вс
вс2501:00+30зюз2217100 0.0 100511
04:00+30зюз331817 0.0 100527
07:00+31сз34210 0.0 100797
10:00+38юз5421100 0.0 10081521
13:00+40юз441693 0.0 10063192
16:00+40ююз8520100 0.0 10032346
19:00+33юз583498 0.0 1004136
22:00+31з46352 0.0 100783
26 апреля, пн
пн2601:00+27зюз612575 0.0 1006254
04:00+26з486132 0.0 1006125
07:00+28зсз46496 0.0 1008144
10:00+38с67164 0.0 10081208
13:00+43св665100 0.0 10053618
16:00+42всв56516 0.0 10025179
19:00+32ююз442136 0.0 100438
22:00+30зсз34260 0.0 100626